DW1437 Weather Reports


time (UTC)temp
C
wind
direction
speed
KPH
gust
KPH
rain 1hr
cm
rain 24hr
cm
rain mn
cm
humidity
%
barometer
mb
20260509164331 19 33 0.0 3.2 0.00 0.74 0.00 54 1016.6
20260509163354 19 34 0.0 4.8 0.00 0.74 0.00 53 1016.6
20260509161254 19 40 0.0 1.6 0.00 0.74 0.00 57 1016.6
20260509160316 19 49 0.0 4.8 0.00 0.74 0.00 53 1016.6
20260509155306 19 67 0.0 3.2 0.00 0.74 0.00 54 1016.7
20260509154240 20 76 0.0 0.0 0.00 0.74 0.00 56 1016.8
20260509153212 20 76 0.0 4.8 0.00 0.74 0.00 53 1016.8
20260509152229 20 24 0.0 3.2 0.00 0.74 0.00 55 1016.8
20260509151252 20 24 1.6 4.8 0.00 0.74 0.00 57 1016.7
20260509150217 20 69 1.6 6.4 0.00 0.74 0.00 54 1016.8
20260509145207 20 43 1.6 6.4 0.00 0.74 0.00 54 1016.8
20260509144156 20 42 0.0 4.8 0.00 0.74 0.00 54 1016.8
20260509143144 20 64 1.6 6.4 0.00 0.74 0.00 53 1016.9
20260509142134 20 48 1.6 6.4 0.00 0.74 0.00 57 1016.9
20260509140018 20 48 1.6 6.4 0.00 0.74 0.00 55 1016.9
20260509135040 20 63 1.6 6.4 0.00 0.74 0.00 56 1017.0
20260509134034 20 39 0.0 6.4 0.00 0.74 0.00 59 1016.9
20260509133024 20 31 1.6 8.0 0.00 0.74 0.00 59 1017.0
20260509131958 20 32 1.6 9.7 0.00 0.74 0.00 61 1017.1
20260509131009 20 26 1.6 6.4 0.00 0.74 0.00 61 1017.2
20260509124842 18 51 1.6 6.4 0.00 0.74 0.00 65 1017.4
20260509122732 18 34 0.0 6.4 0.00 0.74 0.00 66 1017.6
20260509120552 18 42 0.0 6.4 0.00 0.74 0.00 66 1017.8
20260509115615 18 28 0.0 3.2 0.00 0.74 0.00 67 1017.8
20260509114546 18 63 1.6 4.8 0.00 0.74 0.00 71 1017.8
20260509113548 17 44 0.0 1.6 0.00 0.74 0.00 71 1017.9
20260509112533 17 36 0.0 4.8 0.00 0.74 0.00 73 1018.0
20260509111546 17 27 0.0 6.4 0.00 0.74 0.00 76 1018.1
20260509110544 17 38 0.0 6.4 0.00 0.74 0.00 80 1018.3
20260509105537 17 55 0.0 0.0 0.00 0.74 0.00 81 1018.3
20260509103415 16 44 0.0 1.6 0.00 0.74 0.00 89 1018.4
20260509102343 15 42 0.0 0.0 0.00 0.74 0.00 92 1018.5
20260509101322 14 19 0.0 0.0 0.00 0.74 0.00 93 1018.5
20260509100305 14 23 0.0 3.2 0.00 0.74 0.00 96 1018.5
20260509095244 13 340 0.0 0.0 0.00 0.74 0.00 96 1018.6
20260509094252 14 343 0.0 0.0 0.00 0.74 0.00 97 1018.6
20260509092106 12 321 1.6 3.2 0.00 0.74 0.00 97 1018.6
20260509091106 12 294 1.6 8.0 0.00 0.74 0.00 97 1018.6
20260509090107 12 281 0.0 4.8 0.00 0.74 0.00 97 1018.7
20260509085118 12 283 0.0 4.8 0.00 0.74 0.00 97 1018.7
20260509084053 11 275 1.6 6.4 0.00 0.74 0.00 97 1018.7
20260509083111 11 288 1.6 8.0 0.00 0.74 0.00 97 1018.7
20260509082122 10 265 1.6 8.0 0.00 0.74 0.00 96 1018.7
20260509081147 10 277 1.6 8.0 0.00 0.74 0.00 96 1018.8
20260509080149 10 299 1.6 6.4 0.00 0.74 0.00 96 1018.7
20260509075128 9 278 1.6 4.8 0.00 0.74 0.00 96 1018.8
20260509074147 9 298 1.6 4.8 0.00 0.74 0.00 96 1018.7
20260509073155 9 297 0.0 4.8 0.00 0.74 0.00 96 1018.6
20260509072204 8 286 0.0 3.2 0.00 0.74 0.00 96 1018.6
20260509071134 8 286 0.0 1.6 0.00 0.74 0.00 96 1018.6
20260509070110 8 285 0.0 3.2 0.00 0.74 0.00 96 1018.5
20260509065112 8 281 0.0 0.0 0.00 0.74 0.00 96 1018.5
20260509064129 8 287 0.0 3.2 0.00 0.74 0.00 96 1018.5
20260509063128 8 300 0.0 3.2 0.00 0.74 0.00 96 1018.5
20260509060943 7 263 0.0 0.0 0.00 0.74 0.00 96 1018.5
20260509060004 7 263 0.0 0.0 0.00 0.74 0.00 96 1018.4
20260509054944 6 263 0.0 0.0 0.00 0.74 0.00 96 1018.4
20260509053943 6 263 0.0 0.0 0.00 0.74 0.00 96 1018.3
20260509052953 6 263 0.0 0.0 0.00 0.74 0.00 95 1018.3
20260509052005 6 263 0.0 0.0 0.00 0.74 0.00 95 1018.3
20260509045848 6 263 0.0 0.0 0.00 0.74 0.00 95 1018.1
20260509044839 6 263 0.0 0.0 0.00 0.74 0.00 95 1018.1
20260509042714 7 263 0.0 0.0 0.00 0.74 0.00 95 1018.0
20260509041659 7 263 0.0 0.0 0.00 0.74 0.00 95 1018.0
20260509040630 7 263 0.0 0.0 0.00 0.74 0.00 95 1017.9
20260509035616 7 263 0.0 0.0 0.00 0.74 0.00 94 1017.9
20260509034617 8 263 0.0 0.0 0.00 0.74 0.00 95 1017.8
20260509033552 8 263 0.0 0.0 0.00 0.74 0.00 95 1017.9
20260509032527 8 267 0.0 0.0 0.00 0.74 0.00 95 1017.8
20260509031506 8 167 0.0 0.0 0.00 0.74 0.00 95 1017.9
20260509030445 8 163 0.0 0.0 0.00 0.74 0.00 95 1018.0
20260509024301 7 163 0.0 0.0 0.00 0.74 0.00 95 1017.8
20260509023250 7 163 0.0 0.0 0.00 0.74 0.00 94 1017.8
20260509021049 7 163 0.0 0.0 0.00 0.74 0.00 95 1017.8
20260509020053 7 163 0.0 0.0 0.00 0.74 0.00 94 1017.7
20260509015034 7 163 0.0 0.0 0.00 0.74 0.00 94 1017.7
20260509014046 7 163 0.0 0.0 0.00 0.74 0.00 94 1017.8
20260509013050 8 163 0.0 0.0 0.00 0.74 0.00 94 1017.9
20260509012113 8 163 0.0 0.0 0.00 0.74 0.00 93 1017.9
20260509011039 8 163 0.0 0.0 0.00 0.74 0.00 94 1017.9
20260509010051 8 163 0.0 0.0 0.00 0.74 0.00 94 1017.9
20260509005026 8 163 0.0 0.0 0.00 0.74 0.00 94 1017.9
20260509004012 9 163 0.0 0.0 0.00 0.74 0.00 94 1017.9
20260509001851 10 163 0.0 0.0 0.00 0.74 0.00 94 1017.8
20260509000822 10 163 0.0 0.0 0.00 0.74 0.00 94 1017.9
20260508235846 10 163 0.0 0.0 0.00 0.74 0.00 93 1017.8
20260508234849 10 163 0.0 0.0 0.00 0.74 0.00 93 1017.8
20260508232727 10 163 0.0 0.0 0.00 0.74 0.00 93 1017.8
20260508231702 10 163 0.0 0.0 0.00 0.74 0.00 93 1017.7
20260508230647 10 163 0.0 0.0 0.00 0.74 0.00 93 1017.8
20260508225701 10 163 0.0 0.0 0.00 0.74 0.74 93 1017.7
20260508224720 10 163 0.0 0.0 0.00 0.74 0.74 93 1017.7
20260508223734 10 163 0.0 0.0 0.00 0.74 0.74 93 1017.6
20260508222738 10 163 0.0 0.0 0.10 0.74 0.74 93 1017.6
20260508221726 10 163 0.0 0.0 0.18 0.71 0.74 93 1017.7
20260508220746 10 163 0.0 0.0 0.18 0.66 0.66 93 1017.8
20260508215801 10 163 0.0 0.0 0.00 0.64 0.64 93 1017.8
20260508214808 10 163 0.0 4.8 0.00 0.64 0.64 93 1017.8
20260508213750 10 220 0.0 4.8 0.00 0.64 0.64 92 1017.8
20260508212753 10 60 0.0 0.0 0.00 0.64 0.64 92 1017.5
20260508210555 11 71 0.0 0.0 0.00 0.64 0.64 92 1017.3
20260508205527 11 71 0.0 1.6 0.00 0.64 0.64 91 1017.3
20260508204531 11 71 0.0 1.6 0.00 0.64 0.64 91 1017.0
20260508202351 11 60 0.0 1.6 0.00 0.64 0.64 91 1017.0
20260508201336 11 52 1.6 3.2 0.00 0.64 0.64 91 1016.9
20260508200310 12 52 1.6 3.2 0.08 0.64 0.64 91 1017.0
20260508195314 12 52 0.0 3.2 0.25 0.64 0.64 90 1017.0
20260508194313 12 40 0.0 3.2 0.43 0.58 0.58 90 1016.8
20260508192232 12 128 0.0 0.0 0.48 0.36 0.36 89 1017.0
20260508190053 12 111 0.0 0.0 0.08 0.23 0.23 88 1016.5
20260508182741 13 68 0.0 0.0 0.00 0.08 0.08 85 1015.9
20260508181731 13 68 0.0 0.0 0.00 0.08 0.08 84 1015.8
20260508180731 14 68 0.0 0.0 0.00 0.08 0.08 83 1015.7
20260508173509 15 68 0.0 0.0 0.08 0.00 0.03 78 1015.6
20260508171328 16 68 1.6 3.2 0.00 0.00 0.00 76 1015.4
20260508170255 16 65 1.6 3.2 0.00 0.00 0.00 75 1015.2
20260508165248 16 65 1.6 4.8 0.00 0.00 0.00 75 1015.2